owner,sensor,date,latitude,longitude,vertical_datum,direction_of_sea_water_velocity,sea_water_speed,upward_sea_water_velocity,qcFlag 
TABS,ioos:station:wmo:42049:1,2003-05-01T00:00:00Z,28.3507,-96.0058,2.0,240.3146576,40.34480016,-99999.0,'11111222,11111222,99999999' 
TABS,ioos:station:wmo:42049:1,2003-05-01T00:30:00Z,28.3507,-96.0058,2.0,237.4559426,37.56904311,-99999.0,'11111222,11111222,99999999' 
TABS,ioos:station:wmo:42049:1,2003-05-01T01:00:00Z,28.3507,-96.0058,2.0,233.3302014,36.01822039,-99999.0,'11111222,11111222,99999999' 
TABS,ioos:station:wmo:42049:1,2003-05-01T01:30:00Z,28.3507,-96.0058,2.0,235.8728159,37.11052142,-99999.0,'11111222,11111222,99999999' 
TABS,ioos:station:wmo:42049:1,2003-05-01T02:00:00Z,28.3507,-96.0058,2.0,234.7951152,37.98804549,-99999.0,'11111222,11111222,99999999' 
TABS,ioos:station:wmo:42049:1,2003-05-01T02:30:00Z,28.3507,-96.0058,2.0,238.7006319,33.70519396,-99999.0,'11111222,11111222,99999999' 
TABS,ioos:station:wmo:42049:1,2003-05-01T03:00:00Z,28.3507,-96.0058,2.0,242.6154549,32.22056021,-99999.0,'11111222,11111222,99999999' 
TABS,ioos:station:wmo:42049:1,2003-05-01T03:30:00Z,28.3507,-96.0058,2.0,242.3453591,31.99496992,-99999.0,'11111222,11111222,99999999' 
TABS,ioos:station:wmo:42049:1,2003-05-01T04:00:00Z,28.3507,-96.0058,2.0,244.2097499,29.42040278,-99999.0,'11111222,11111222,99999999' 
TABS,ioos:station:wmo:42049:1,2003-05-01T04:30:00Z,28.3507,-96.0058,2.0,246.5279024,28.09464362,-99999.0,'11111222,11111222,99999999' 
TABS,ioos:station:wmo:42049:1,2003-05-01T05:00:00Z,28.3507,-96.0058,2.0,249.3611015,28.4562436,-99999.0,'11111222,11111222,99999999' 
TABS,ioos:station:wmo:42049:1,2003-05-01T05:30:00Z,28.3507,-96.0058,2.0,247.0593349,24.75807949,-99999.0,'11111222,11111222,99999999' 
TABS,ioos:station:wmo:42049:1,2003-05-01T06:00:00Z,28.3507,-96.0058,2.0,247.6999,25.19423942,-99999.0,'11111222,11111222,99999999' 
TABS,ioos:station:wmo:42049:1,2003-05-01T07:00:00Z,28.3507,-96.0058,2.0,253.6427351,16.83122396,-99999.0,'11111222,11111222,99999999' 
TABS,ioos:station:wmo:42049:1,2003-05-01T07:30:00Z,28.3507,-96.0058,2.0,252.7071701,13.32216199,-99999.0,'11111222,11111222,99999999' 
TABS,ioos:station:wmo:42049:1,2003-05-01T08:30:00Z,28.3507,-96.0058,2.0,253.5928453,9.382030697,-99999.0,'11133222,11111222,99999999' 
TABS,ioos:station:wmo:42049:1,2003-05-01T09:00:00Z,28.3507,-96.0058,2.0,275.3928809,3.40506975,-99999.0,'11133222,11111222,99999999' 
TABS,ioos:station:wmo:42049:1,2003-05-01T09:30:00Z,28.3507,-96.0058,2.0,124.6610084,2.127580786,-99999.0,'11133222,11111222,99999999' 
TABS,ioos:station:wmo:42049:1,2003-05-01T10:00:00Z,28.3507,-96.0058,2.0,97.10741355,4.041051843,-99999.0,'11133222,11111222,99999999' 
TABS,ioos:station:wmo:42049:1,2003-05-01T11:00:00Z,28.3507,-96.0058,2.0,134.7611643,6.788284025,-99999.0,'11133222,11111222,99999999' 
TABS,ioos:station:wmo:42049:1,2003-05-01T12:00:00Z,28.3507,-96.0058,2.0,131.0047815,13.39687277,-99999.0,'11111222,11111222,99999999' 
TABS,ioos:station:wmo:42049:1,2003-05-01T12:30:00Z,28.3507,-96.0058,2.0,129.6786502,16.77415274,-99999.0,'11111222,11111222,99999999' 
TABS,ioos:station:wmo:42049:1,2003-05-01T13:00:00Z,28.3507,-96.0058,2.0,128.5900095,19.25467735,-99999.0,'11111222,11111222,99999999' 
TABS,ioos:station:wmo:42049:1,2003-05-01T14:00:00Z,28.3507,-96.0058,2.0,135.8023023,25.24618783,-99999.0,'11111222,11111222,99999999' 
TABS,ioos:station:wmo:42049:1,2003-05-01T15:00:00Z,28.3507,-96.0058,2.0,132.807604,25.69385335,-99999.0,'11111222,11111222,99999999' 
TABS,ioos:station:wmo:42049:1,2003-05-01T16:00:00Z,28.3507,-96.0058,2.0,135.0387744,31.26119799,-99999.0,'11111222,11111222,99999999' 
TABS,ioos:station:wmo:42049:1,2003-05-01T16:30:00Z,28.3507,-96.0058,2.0,143.1371915,31.77200025,-99999.0,'11111222,11111222,99999999' 
TABS,ioos:station:wmo:42049:1,2003-05-01T17:00:00Z,28.3507,-96.0058,2.0,145.211212,31.39070722,-99999.0,'11111222,11111222,99999999' 
TABS,ioos:station:wmo:42049:1,2003-05-01T17:30:00Z,28.3507,-96.0058,2.0,150.7922614,32.009811,-99999.0,'11111222,11111222,99999999' 
TABS,ioos:station:wmo:42049:1,2003-05-01T18:00:00Z,28.3507,-96.0058,2.0,157.781,35.93857259,-99999.0,'11111222,11111222,99999999' 
TABS,ioos:station:wmo:42049:1,2003-05-01T19:00:00Z,28.3507,-96.0058,2.0,165.5215395,35.83813053,-99999.0,'11111222,11111222,99999999' 
TABS,ioos:station:wmo:42049:1,2003-05-01T19:30:00Z,28.3507,-96.0058,2.0,167.8057519,35.46005781,-99999.0,'11111222,11111222,99999999' 
TABS,ioos:station:wmo:42049:1,2003-05-01T20:00:00Z,28.3507,-96.0058,2.0,168.0843959,37.48773133,-99999.0,'11111222,11111222,99999999' 
TABS,ioos:station:wmo:42049:1,2003-05-01T20:30:00Z,28.3507,-96.0058,2.0,169.4300618,33.85443102,-99999.0,'11111222,11111222,99999999' 
TABS,ioos:station:wmo:42049:1,2003-05-01T21:00:00Z,28.3507,-96.0058,2.0,173.1370052,29.54166211,-99999.0,'11111222,11111222,99999999' 
TABS,ioos:station:wmo:42049:1,2003-05-01T21:30:00Z,28.3507,-96.0058,2.0,179.8673143,25.95006936,-99999.0,'11111222,11111222,99999999' 
TABS,ioos:station:wmo:42049:1,2003-05-01T22:00:00Z,28.3507,-96.0058,2.0,222.4246745,24.71004856,-99999.0,'11111222,11111222,99999999' 
TABS,ioos:station:wmo:42049:1,2003-05-01T22:30:00Z,28.3507,-96.0058,2.0,239.7233753,22.86926759,-99999.0,'11111222,11111222,99999999' 
TABS,ioos:station:wmo:42049:1,2003-05-01T23:30:00Z,28.3507,-96.0058,2.0,246.6665979,30.77699953,-99999.0,'11111222,11111222,99999999' 
TABS,ioos:station:wmo:42049:1,2003-05-02T00:00:00Z,28.3507,-96.0058,2.0,250.2948631,32.53517788,-99999.0,'11111222,11111222,99999999' 
TABS,ioos:station:wmo:42049:1,2003-05-02T00:30:00Z,28.3507,-96.0058,2.0,260.0486547,30.84401563,-99999.0,'11111222,11111222,99999999' 
TABS,ioos:station:wmo:42049:1,2003-05-02T01:00:00Z,28.3507,-96.0058,2.0,266.0507663,32.52722091,-99999.0,'11111222,11111222,99999999' 
TABS,ioos:station:wmo:42049:1,2003-05-02T01:30:00Z,28.3507,-96.0058,2.0,267.1421852,34.30264859,-99999.0,'11111222,11111222,99999999' 
TABS,ioos:station:wmo:42049:1,2003-05-02T02:00:00Z,28.3507,-96.0058,2.0,282.1824076,42.6503939,-99999.0,'11111222,11111222,99999999' 
TABS,ioos:station:wmo:42049:1,2003-05-02T02:30:00Z,28.3507,-96.0058,2.0,292.1724605,41.04509959,-99999.0,'11111222,11111222,99999999' 
TABS,ioos:station:wmo:42049:1,2003-05-02T03:00:00Z,28.3507,-96.0058,2.0,294.9866646,38.47050039,-99999.0,'11111222,11111222,99999999' 
TABS,ioos:station:wmo:42049:1,2003-05-02T03:30:00Z,28.3507,-96.0058,2.0,299.5804478,35.7953321,-99999.0,'11111222,11111222,99999999' 
TABS,ioos:station:wmo:42049:1,2003-05-02T04:00:00Z,28.3507,-96.0058,2.0,306.004805,33.10377622,-99999.0,'11111222,11111222,99999999' 
TABS,ioos:station:wmo:42049:1,2003-05-02T04:30:00Z,28.3507,-96.0058,2.0,305.3500384,31.88922389,-99999.0,'11111222,11111222,99999999' 
TABS,ioos:station:wmo:42049:1,2003-05-02T05:00:00Z,28.3507,-96.0058,2.0,312.6474268,27.55797162,-99999.0,'11111222,11111222,99999999' 
TABS,ioos:station:wmo:42049:1,2003-05-02T05:30:00Z,28.3507,-96.0058,2.0,313.6622138,22.40725329,-99999.0,'11111222,11111222,99999999' 
TABS,ioos:station:wmo:42049:1,2003-05-02T06:00:00Z,28.3507,-96.0058,2.0,316.8119827,20.35363604,-99999.0,'11111222,11111222,99999999' 
TABS,ioos:station:wmo:42049:1,2003-05-02T06:30:00Z,28.3507,-96.0058,2.0,317.4417721,16.10129498,-99999.0,'11111222,11111222,99999999' 
TABS,ioos:station:wmo:42049:1,2003-05-02T07:00:00Z,28.3507,-96.0058,2.0,319.2144844,13.4714513,-99999.0,'11111222,11111222,99999999' 
TABS,ioos:station:wmo:42049:1,2003-05-02T08:00:00Z,28.3507,-96.0058,2.0,292.8177738,5.131568961,-99999.0,'11133222,11111222,99999999' 
TABS,ioos:station:wmo:42049:1,2003-05-02T10:00:00Z,28.3507,-96.0058,2.0,202.0187254,10.26902624,-99999.0,'11111222,11111222,99999999' 
TABS,ioos:station:wmo:42049:1,2003-05-02T10:30:00Z,28.3507,-96.0058,2.0,195.1955066,13.5435372,-99999.0,'11111222,11111222,99999999' 
TABS,ioos:station:wmo:42049:1,2003-05-02T11:00:00Z,28.3507,-96.0058,2.0,199.7423872,16.48924801,-99999.0,'11111222,11111222,99999999' 
TABS,ioos:station:wmo:42049:1,2003-05-02T11:30:00Z,28.3507,-96.0058,2.0,207.0215539,20.75584255,-99999.0,'11111222,11111222,99999999' 
TABS,ioos:station:wmo:42049:1,2003-05-02T12:00:00Z,28.3507,-96.0058,2.0,214.841472,22.49208972,-99999.0,'11111222,11111222,99999999' 
TABS,ioos:station:wmo:42049:1,2003-05-02T12:30:00Z,28.3507,-96.0058,2.0,228.5867514,25.88131565,-99999.0,'11111222,11111222,99999999' 
TABS,ioos:station:wmo:42049:1,2003-05-02T13:30:00Z,28.3507,-96.0058,2.0,230.199174,43.3827362,-99999.0,'11111222,11111222,99999999' 
TABS,ioos:station:wmo:42049:1,2003-05-02T14:00:00Z,28.3507,-96.0058,2.0,238.4391856,41.49804815,-99999.0,'11111222,11111222,99999999' 
TABS,ioos:station:wmo:42049:1,2003-05-02T14:30:00Z,28.3507,-96.0058,2.0,239.4821348,43.59969266,-99999.0,'11111222,11111222,99999999' 
TABS,ioos:station:wmo:42049:1,2003-05-02T15:00:00Z,28.3507,-96.0058,2.0,234.5197652,61.09397761,-99999.0,'11111222,11111222,99999999' 
TABS,ioos:station:wmo:42049:1,2003-05-02T15:30:00Z,28.3507,-96.0058,2.0,235.4559105,61.98908049,-99999.0,'11111222,11111222,99999999' 
TABS,ioos:station:wmo:42049:1,2003-05-02T16:00:00Z,28.3507,-96.0058,2.0,235.3653683,55.37214552,-99999.0,'11111222,11111222,99999999' 
TABS,ioos:station:wmo:42049:1,2003-05-02T16:30:00Z,28.3507,-96.0058,2.0,242.2550281,53.65911386,-99999.0,'11111222,11111222,99999999' 
TABS,ioos:station:wmo:42049:1,2003-05-02T17:00:00Z,28.3507,-96.0058,2.0,243.2381646,54.78845955,-99999.0,'11111222,11111222,99999999' 
TABS,ioos:station:wmo:42049:1,2003-05-02T17:30:00Z,28.3507,-96.0058,2.0,236.9878018,59.98393452,-99999.0,'11111222,11111222,99999999' 
TABS,ioos:station:wmo:42049:1,2003-05-02T18:00:00Z,28.3507,-96.0058,2.0,240.0923012,52.92831473,-99999.0,'11111222,11111222,99999999' 
TABS,ioos:station:wmo:42049:1,2003-05-02T18:30:00Z,28.3507,-96.0058,2.0,240.3934811,52.76949213,-99999.0,'11111222,11111222,99999999' 
TABS,ioos:station:wmo:42049:1,2003-05-02T19:00:00Z,28.3507,-96.0058,2.0,239.797397,52.51922029,-99999.0,'11111222,11111222,99999999' 
TABS,ioos:station:wmo:42049:1,2003-05-02T19:30:00Z,28.3507,-96.0058,2.0,238.0231217,48.41646931,-99999.0,'11111222,11111222,99999999' 
TABS,ioos:station:wmo:42049:1,2003-05-02T20:00:00Z,28.3507,-96.0058,2.0,239.4783869,47.96615473,-99999.0,'11111222,11111222,99999999' 
TABS,ioos:station:wmo:42049:1,2003-05-02T21:30:00Z,28.3507,-96.0058,2.0,257.186222,33.41204124,-99999.0,'11111222,11111222,99999999' 
TABS,ioos:station:wmo:42049:1,2003-05-02T22:00:00Z,28.3507,-96.0058,2.0,251.9676203,33.27430841,-99999.0,'11111222,11111222,99999999' 
TABS,ioos:station:wmo:42049:1,2003-05-02T23:00:00Z,28.3507,-96.0058,2.0,243.7580783,34.0603303,-99999.0,'11111222,11111222,99999999' 
TABS,ioos:station:wmo:42049:1,2003-05-02T23:30:00Z,28.3507,-96.0058,2.0,242.9986284,33.50174025,-99999.0,'11111222,11111222,99999999' 
TABS,ioos:station:wmo:42049:1,2003-05-03T00:00:00Z,28.3507,-96.0058,2.0,234.2938151,34.45711102,-99999.0,'11111222,11111222,99999999' 
TABS,ioos:station:wmo:42049:1,2003-05-03T00:30:00Z,28.3507,-96.0058,2.0,230.6117404,34.77958165,-99999.0,'11111222,11111222,99999999' 
TABS,ioos:station:wmo:42049:1,2003-05-03T01:00:00Z,28.3507,-96.0058,2.0,231.4201329,39.01536749,-99999.0,'11111222,11111222,99999999' 
TABS,ioos:station:wmo:42049:1,2003-05-03T01:30:00Z,28.3507,-96.0058,2.0,230.0917875,40.86943724,-99999.0,'11111222,11111222,99999999' 
TABS,ioos:station:wmo:42049:1,2003-05-03T02:00:00Z,28.3507,-96.0058,2.0,229.2670073,43.04779321,-99999.0,'11111222,11111222,99999999' 
TABS,ioos:station:wmo:42049:1,2003-05-03T02:30:00Z,28.3507,-96.0058,2.0,229.728966,37.22154752,-99999.0,'11111222,11111222,99999999' 
TABS,ioos:station:wmo:42049:1,2003-05-03T03:00:00Z,28.3507,-96.0058,2.0,229.6177716,40.22354037,-99999.0,'11111222,11111222,99999999' 
TABS,ioos:station:wmo:42049:1,2003-05-03T03:30:00Z,28.3507,-96.0058,2.0,230.1690971,38.1409098,-99999.0,'11111222,11111222,99999999' 
TABS,ioos:station:wmo:42049:1,2003-05-03T04:00:00Z,28.3507,-96.0058,2.0,234.750195,36.28250956,-99999.0,'11111222,11111222,99999999' 
TABS,ioos:station:wmo:42049:1,2003-05-03T04:30:00Z,28.3507,-96.0058,2.0,239.3320153,35.50582628,-99999.0,'11111222,11111222,99999999' 
TABS,ioos:station:wmo:42049:1,2003-05-03T05:00:00Z,28.3507,-96.0058,2.0,242.9775816,31.95890017,-99999.0,'11111222,11111222,99999999' 
TABS,ioos:station:wmo:42049:1,2003-05-03T05:30:00Z,28.3507,-96.0058,2.0,257.3865114,29.49172765,-99999.0,'11111222,11111222,99999999' 
TABS,ioos:station:wmo:42049:1,2003-05-03T06:00:00Z,28.3507,-96.0058,2.0,264.1276735,22.97052459,-99999.0,'11111222,11111222,99999999' 
TABS,ioos:station:wmo:42049:1,2003-05-03T06:30:00Z,28.3507,-96.0058,2.0,274.0777939,19.83019163,-99999.0,'11111222,11111222,99999999' 
TABS,ioos:station:wmo:42049:1,2003-05-03T07:00:00Z,28.3507,-96.0058,2.0,265.2665112,20.23901677,-99999.0,'11111222,11111222,99999999' 
TABS,ioos:station:wmo:42049:1,2003-05-03T07:30:00Z,28.3507,-96.0058,2.0,260.6138297,18.45709078,-99999.0,'11111222,11111222,99999999' 
TABS,ioos:station:wmo:42049:1,2003-05-03T08:00:00Z,28.3507,-96.0058,2.0,260.9360958,16.06052614,-99999.0,'11111222,11111222,99999999' 
TABS,ioos:station:wmo:42049:1,2003-05-03T08:30:00Z,28.3507,-96.0058,2.0,267.627311,15.70345822,-99999.0,'11111222,11111222,99999999' 
TABS,ioos:station:wmo:42049:1,2003-05-03T09:30:00Z,28.3507,-96.0058,2.0,285.6349859,14.43406041,-99999.0,'11111222,11111222,99999999' 
TABS,ioos:station:wmo:42049:1,2003-05-03T10:00:00Z,28.3507,-96.0058,2.0,286.7548584,13.9105176,-99999.0,'11111222,11111222,99999999' 
TABS,ioos:station:wmo:42049:1,2003-05-03T10:30:00Z,28.3507,-96.0058,2.0,284.5179037,12.12720908,-99999.0,'11111222,11111222,99999999' 
TABS,ioos:station:wmo:42049:1,2003-05-03T11:00:00Z,28.3507,-96.0058,2.0,279.9278656,11.54283327,-99999.0,'11111222,11111222,99999999' 
TABS,ioos:station:wmo:42049:1,2003-05-03T11:30:00Z,28.3507,-96.0058,2.0,295.9027885,10.82776524,-99999.0,'11111222,11111222,99999999' 
TABS,ioos:station:wmo:42049:1,2003-05-03T12:00:00Z,28.3507,-96.0058,2.0,281.3103269,5.914862636,-99999.0,'11133222,11111222,99999999' 
TABS,ioos:station:wmo:42049:1,2003-05-03T12:30:00Z,28.3507,-96.0058,2.0,264.2377433,6.673717105,-99999.0,'11133222,11111222,99999999' 
TABS,ioos:station:wmo:42049:1,2003-05-03T13:00:00Z,28.3507,-96.0058,2.0,319.0486277,8.51359501,-99999.0,'11133222,11111222,99999999' 
TABS,ioos:station:wmo:42049:1,2003-05-03T13:30:00Z,28.3507,-96.0058,2.0,315.456845,7.099577452,-99999.0,'11133222,11111222,99999999' 
TABS,ioos:station:wmo:42049:1,2003-05-03T14:00:00Z,28.3507,-96.0058,2.0,336.3919101,6.242467461,-99999.0,'11133222,11111222,99999999' 
TABS,ioos:station:wmo:42049:1,2003-05-03T14:30:00Z,28.3507,-96.0058,2.0,317.8915785,2.803711825,-99999.0,'11133222,11111222,99999999' 
TABS,ioos:station:wmo:42049:1,2003-05-03T15:00:00Z,28.3507,-96.0058,2.0,98.56086955,0.940478602,-99999.0,'11133222,11111222,99999999' 
TABS,ioos:station:wmo:42049:1,2003-05-03T15:30:00Z,28.3507,-96.0058,2.0,163.7453675,11.96840006,-99999.0,'11111222,11111222,99999999' 
TABS,ioos:station:wmo:42049:1,2003-05-03T16:00:00Z,28.3507,-96.0058,2.0,174.2676409,13.2160849,-99999.0,'11111222,11111222,99999999' 
TABS,ioos:station:wmo:42049:1,2003-05-03T16:30:00Z,28.3507,-96.0058,2.0,181.3164022,22.19585997,-99999.0,'11111222,11111222,99999999' 
TABS,ioos:station:wmo:42049:1,2003-05-03T17:30:00Z,28.3507,-96.0058,2.0,196.6618064,23.61138073,-99999.0,'11111222,11111222,99999999' 
TABS,ioos:station:wmo:42049:1,2003-05-03T18:00:00Z,28.3507,-96.0058,2.0,211.8887814,25.06264152,-99999.0,'11111222,11111222,99999999' 
TABS,ioos:station:wmo:42049:1,2003-05-03T18:30:00Z,28.3507,-96.0058,2.0,208.6010233,29.9553935,-99999.0,'11111222,11111222,99999999' 
TABS,ioos:station:wmo:42049:1,2003-05-03T19:00:00Z,28.3507,-96.0058,2.0,203.4403278,27.97902429,-99999.0,'11111222,11111222,99999999' 
TABS,ioos:station:wmo:42049:1,2003-05-03T20:00:00Z,28.3507,-96.0058,2.0,211.7011451,27.17448804,-99999.0,'11111222,11111222,99999999' 
TABS,ioos:station:wmo:42049:1,2003-05-03T20:30:00Z,28.3507,-96.0058,2.0,210.1444857,23.6366347,-99999.0,'11111222,11111222,99999999' 
TABS,ioos:station:wmo:42049:1,2003-05-03T21:30:00Z,28.3507,-96.0058,2.0,206.3078492,24.93240863,-99999.0,'11111222,11111222,99999999' 
TABS,ioos:station:wmo:42049:1,2003-05-03T22:30:00Z,28.3507,-96.0058,2.0,217.6529298,23.11416016,-99999.0,'11111222,11111222,99999999' 
TABS,ioos:station:wmo:42049:1,2003-05-03T23:00:00Z,28.3507,-96.0058,2.0,238.0647074,19.83151532,-99999.0,'11111222,11111222,99999999' 
TABS,ioos:station:wmo:42049:1,2003-05-03T23:30:00Z,28.3507,-96.0058,2.0,267.6011634,28.67511988,-99999.0,'11111222,11111222,99999999' 
TABS,ioos:station:wmo:42049:1,2003-05-04T00:00:00Z,28.3507,-96.0058,2.0,257.093485,27.17655239,-99999.0,'11111222,11111222,99999999' 
TABS,ioos:station:wmo:42049:1,2003-05-04T00:30:00Z,28.3507,-96.0058,2.0,259.4013042,26.36984831,-99999.0,'11111222,11111222,99999999' 
TABS,ioos:station:wmo:42049:1,2003-05-04T01:00:00Z,28.3507,-96.0058,2.0,266.7787344,26.34160967,-99999.0,'11111222,11111222,99999999' 
TABS,ioos:station:wmo:42049:1,2003-05-04T01:30:00Z,28.3507,-96.0058,2.0,261.1161244,31.40674131,-99999.0,'11111222,11111222,99999999' 
TABS,ioos:station:wmo:42049:1,2003-05-04T02:00:00Z,28.3507,-96.0058,2.0,263.5450905,29.88945633,-99999.0,'11111222,11111222,99999999' 
TABS,ioos:station:wmo:42049:1,2003-05-04T02:30:00Z,28.3507,-96.0058,2.0,266.7169379,30.91071821,-99999.0,'11111222,11111222,99999999' 
TABS,ioos:station:wmo:42049:1,2003-05-04T03:00:00Z,28.3507,-96.0058,2.0,275.3070885,33.73458907,-99999.0,'11111222,11111222,99999999' 
TABS,ioos:station:wmo:42049:1,2003-05-04T03:30:00Z,28.3507,-96.0058,2.0,276.9191625,32.04334096,-99999.0,'11111222,11111222,99999999' 
TABS,ioos:station:wmo:42049:1,2003-05-04T04:00:00Z,28.3507,-96.0058,2.0,276.6215183,30.18129885,-99999.0,'11111222,11111222,99999999' 
TABS,ioos:station:wmo:42049:1,2003-05-04T04:30:00Z,28.3507,-96.0058,2.0,282.7853084,28.87590172,-99999.0,'11111222,11111222,99999999' 
TABS,ioos:station:wmo:42049:1,2003-05-04T05:00:00Z,28.3507,-96.0058,2.0,284.0455181,31.27496922,-99999.0,'11111222,11111222,99999999' 
TABS,ioos:station:wmo:42049:1,2003-05-04T05:30:00Z,28.3507,-96.0058,2.0,283.3420833,28.21139132,-99999.0,'11111222,11111222,99999999' 
TABS,ioos:station:wmo:42049:1,2003-05-04T06:00:00Z,28.3507,-96.0058,2.0,288.6647809,29.21651759,-99999.0,'11111222,11111222,99999999' 
TABS,ioos:station:wmo:42049:1,2003-05-04T06:30:00Z,28.3507,-96.0058,2.0,288.5864328,27.57831938,-99999.0,'11111222,11111222,99999999' 
TABS,ioos:station:wmo:42049:1,2003-05-04T07:00:00Z,28.3507,-96.0058,2.0,296.1341408,27.92480797,-99999.0,'11111222,11111222,99999999' 
TABS,ioos:station:wmo:42049:1,2003-05-04T07:30:00Z,28.3507,-96.0058,2.0,300.1366329,25.05684138,-99999.0,'11111222,11111222,99999999' 
TABS,ioos:station:wmo:42049:1,2003-05-04T08:00:00Z,28.3507,-96.0058,2.0,301.3119997,23.72555163,-99999.0,'11111222,11111222,99999999' 
TABS,ioos:station:wmo:42049:1,2003-05-04T08:30:00Z,28.3507,-96.0058,2.0,314.6016605,25.40696164,-99999.0,'11111222,11111222,99999999' 
TABS,ioos:station:wmo:42049:1,2003-05-04T09:00:00Z,28.3507,-96.0058,2.0,306.366163,22.27886218,-99999.0,'11111222,11111222,99999999' 
TABS,ioos:station:wmo:42049:1,2003-05-04T09:30:00Z,28.3507,-96.0058,2.0,308.9521669,23.28737211,-99999.0,'11111222,11111222,99999999' 
TABS,ioos:station:wmo:42049:1,2003-05-04T10:00:00Z,28.3507,-96.0058,2.0,305.0668924,20.78229294,-99999.0,'11111222,11111222,99999999' 
TABS,ioos:station:wmo:42049:1,2003-05-04T11:00:00Z,28.3507,-96.0058,2.0,315.9495969,15.79186183,-99999.0,'11111222,11111222,99999999' 
TABS,ioos:station:wmo:42049:1,2003-05-04T11:30:00Z,28.3507,-96.0058,2.0,320.8912203,10.95436443,-99999.0,'11111222,11111222,99999999' 
TABS,ioos:station:wmo:42049:1,2003-05-04T12:00:00Z,28.3507,-96.0058,2.0,295.6498845,7.2770942,-99999.0,'11133222,11111222,99999999' 
TABS,ioos:station:wmo:42049:1,2003-05-04T12:30:00Z,28.3507,-96.0058,2.0,284.5539597,6.446859701,-99999.0,'11133222,11111222,99999999' 
TABS,ioos:station:wmo:42049:1,2003-05-04T13:00:00Z,28.3507,-96.0058,2.0,313.7225578,3.805180679,-99999.0,'11133222,11111222,99999999' 
TABS,ioos:station:wmo:42049:1,2003-05-04T13:30:00Z,28.3507,-96.0058,2.0,265.4804519,2.919075196,-99999.0,'11133222,11111222,99999999' 
TABS,ioos:station:wmo:42049:1,2003-05-04T14:00:00Z,28.3507,-96.0058,2.0,254.7731869,1.751485084,-99999.0,'11133222,11111222,99999999' 
TABS,ioos:station:wmo:42049:1,2003-05-04T14:30:00Z,28.3507,-96.0058,2.0,263.289758,2.396413988,-99999.0,'11133222,11111222,99999999' 
TABS,ioos:station:wmo:42049:1,2003-05-04T15:00:00Z,28.3507,-96.0058,2.0,223.63576,2.376552124,-99999.0,'11133222,11111222,99999999' 
TABS,ioos:station:wmo:42049:1,2003-05-04T15:30:00Z,28.3507,-96.0058,2.0,159.1730899,6.440846218,-99999.0,'11133222,11111222,99999999' 
TABS,ioos:station:wmo:42049:1,2003-05-04T16:00:00Z,28.3507,-96.0058,2.0,160.2804433,7.053651537,-99999.0,'11133222,11111222,99999999' 
TABS,ioos:station:wmo:42049:1,2003-05-04T16:30:00Z,28.3507,-96.0058,2.0,144.6918574,6.09026272,-99999.0,'11133222,11111222,99999999' 
TABS,ioos:station:wmo:42049:1,2003-05-04T17:00:00Z,28.3507,-96.0058,2.0,184.202798,10.77898882,-99999.0,'11111222,11111222,99999999' 
TABS,ioos:station:wmo:42049:1,2003-05-04T17:30:00Z,28.3507,-96.0058,2.0,202.8440733,20.81246742,-99999.0,'11111222,11111222,99999999' 
TABS,ioos:station:wmo:42049:1,2003-05-04T18:00:00Z,28.3507,-96.0058,2.0,209.3033252,21.90270303,-99999.0,'11111222,11111222,99999999' 
TABS,ioos:station:wmo:42049:1,2003-05-04T18:30:00Z,28.3507,-96.0058,2.0,211.0039653,21.84035027,-99999.0,'11111222,11111222,99999999' 
TABS,ioos:station:wmo:42049:1,2003-05-04T19:00:00Z,28.3507,-96.0058,2.0,214.8166536,24.39765972,-99999.0,'11111222,11111222,99999999' 
TABS,ioos:station:wmo:42049:1,2003-05-04T19:30:00Z,28.3507,-96.0058,2.0,209.936454,25.92960663,-99999.0,'11111222,11111222,99999999' 
TABS,ioos:station:wmo:42049:1,2003-05-04T20:00:00Z,28.3507,-96.0058,2.0,215.4287833,23.30536848,-99999.0,'11111222,11111222,99999999' 
TABS,ioos:station:wmo:42049:1,2003-05-04T20:30:00Z,28.3507,-96.0058,2.0,223.4041667,23.11013847,-99999.0,'11111222,11111222,99999999' 
TABS,ioos:station:wmo:42049:1,2003-05-04T21:00:00Z,28.3507,-96.0058,2.0,215.4404842,24.05748324,-99999.0,'11111222,11111222,99999999' 
TABS,ioos:station:wmo:42049:1,2003-05-04T21:30:00Z,28.3507,-96.0058,2.0,212.1116726,23.36451369,-99999.0,'11111222,11111222,99999999' 
TABS,ioos:station:wmo:42049:1,2003-05-04T22:00:00Z,28.3507,-96.0058,2.0,215.752709,21.03399629,-99999.0,'11111222,11111222,99999999' 
TABS,ioos:station:wmo:42049:1,2003-05-04T22:30:00Z,28.3507,-96.0058,2.0,224.2507643,17.31145286,-99999.0,'11111222,11111222,99999999' 
TABS,ioos:station:wmo:42049:1,2003-05-04T23:30:00Z,28.3507,-96.0058,2.0,224.0477295,18.72677228,-99999.0,'11111222,11111222,99999999' 
TABS,ioos:station:wmo:42049:1,2003-05-05T00:00:00Z,28.3507,-96.0058,2.0,228.2259661,19.34882425,-99999.0,'11111222,11111222,99999999' 
TABS,ioos:station:wmo:42049:1,2003-05-05T00:30:00Z,28.3507,-96.0058,2.0,234.9459029,15.96602017,-99999.0,'11111222,11111222,99999999' 
TABS,ioos:station:wmo:42049:1,2003-05-05T01:00:00Z,28.3507,-96.0058,2.0,242.3520477,14.91276299,-99999.0,'11111222,11111222,99999999' 
TABS,ioos:station:wmo:42049:1,2003-05-05T01:30:00Z,28.3507,-96.0058,2.0,255.5562428,12.62914882,-99999.0,'11111222,11111222,99999999' 
TABS,ioos:station:wmo:42049:1,2003-05-05T02:00:00Z,28.3507,-96.0058,2.0,248.7346486,12.29728425,-99999.0,'11111222,11111222,99999999' 
TABS,ioos:station:wmo:42049:1,2003-05-05T02:30:00Z,28.3507,-96.0058,2.0,259.3444519,8.923866875,-99999.0,'11133222,11111222,99999999' 
TABS,ioos:station:wmo:42049:1,2003-05-05T03:00:00Z,28.3507,-96.0058,2.0,255.3943243,9.279870689,-99999.0,'11133222,11111222,99999999' 
TABS,ioos:station:wmo:42049:1,2003-05-05T03:30:00Z,28.3507,-96.0058,2.0,249.5736021,10.83101565,-99999.0,'11111222,11111222,99999999' 
TABS,ioos:station:wmo:42049:1,2003-05-05T04:00:00Z,28.3507,-96.0058,2.0,228.5286701,9.075246553,-99999.0,'11133222,11111222,99999999' 